Home   Weather   Montreux   Past weeks

Flag for Switzerland Past Weather in Montreux, Vaud, Switzerland — Yesterday and Last 2 Weeks

Now
67 °F

Mild.


Feels Like: 67 °F
Forecast: 60 / 72 °F
Wind: 6 mph from South

Location: Aigle

Current Time: Jun 27, 2017 at 12:37:55 am

Latest Report: Jun 26, 2017 at 11:00 pm


Visibility: N/A

Pressure: 29.90 "Hg

Humidity: 88%

Dew Point: 63 °F

Location of MontreuxLocation

Past Weather in Montreux — Graph

°F

Montreux Temperature Yesterday

Maximum temperature yesterday: 78 °F (at 11:00 am)
Minimum temperature yesterday: 56 °F (at 5:00 am)
Average temperature yesterday: 68 °F

High & Low Weather Summary for the Past Weeks

 TemperatureHumidityPressure
High90 °F (Jun 23, 4:00 pm)100% (Jun 13, 6:00 am)30.24 "Hg (Jun 13, 6:00 am)
Low53 °F (Jun 17, 7:00 am)40% (Jun 17, 5:00 pm)29.82 "Hg (Jun 26, 4:00 pm)
Average72 °F71%30.03 "Hg
* Reported Jun 11 11:00 pm — Jun 26 11:00 pm, Montreux. Weather by CustomWeather, © 2017

Note: Actual official high and low records may vary slightly from our data, if they occured in-between our weather recording intervals... More about our weather records

Advertising

Montreux Weather History for the Previous 24 Hours

Scroll right to see more
 ConditionsComfort  
Time TempWeatherWind HumidityBarometerVisibility
11:00 pm
Mon, Jun 26
67 °FMild.6 mph88%29.90 "HgN/A
10:00 pm68 °FMild.3 mph88%29.90 "HgN/A
9:00 pm69 °FMild.2 mph91%29.86 "HgN/A
8:00 pm71 °FRain. Overcast.1 mph78%29.83 "Hg7 mi
7:00 pm72 °FMild.2 mph75%29.85 "HgN/A
6:00 pm76 °FMild.6 mph54%29.83 "HgN/A
5:00 pm76 °FPartly sunny.8 mph57%29.82 "Hg19 mi
4:00 pm78 °FWarm.8 mph53%29.82 "HgN/A
3:00 pm77 °FWarm.12 mph50%29.83 "HgN/A
2:00 pm76 °FPartly sunny.9 mph58%29.84 "Hg19 mi
1:00 pm78 °FWarm.9 mph54%29.85 "HgN/A
12:00 pm77 °FMild.9 mph54%29.87 "HgN/A
11:00 am78 °FPartly sunny.3 mph46%29.86 "Hg22 mi
10:00 am75 °FMild.3 mph50%29.89 "HgN/A
9:00 am72 °FMild.2 mph58%29.91 "HgN/A
8:00 am67 °FSunny.3 mph72%29.93 "Hg25 mi
7:00 am57 °FCool.3 mph91%29.97 "HgN/A
6:00 am58 °FCool.1 mph88%29.99 "HgN/A
5:00 am56 °FClear.3 mph93%29.99 "Hg28 mi
4:00 am56 °FCool.2 mph94%30.00 "HgN/A
3:00 am59 °FCool.5 mph87%30.01 "HgN/A
2:00 am58 °FCool.3 mph92%30.02 "HgN/A
1:00 am60 °FCool.2 mph91%30.01 "HgN/A
12:00 am61 °FCool.2 mph87%30.01 "HgN/A
Weather by CustomWeather, © 2017

See weather overviewHow to use our weather pages